UPS2347 KMCO-KDFW

Flight info

Callsign UPS2347
Flight time 2h 18m
Altitude 38000
Route OSPRY1 REMIS Y280 REDFN Q105 HRV J58 AEX PNUTS WHINY4
Aircraft MD11/H-SDE1E2E3FGHIJ2J3J4J5M1RWXY/LB1D1

Departure

Time 2026-05-07 15:12
Airport Orlando International Airport (KMCO)

Arrival

Time 2026-05-07 17:31
Airport Dallas Fort Worth International Airport (KDFW)
Time Latitude Longitude Altitude Speed Heading
2026-05-07 14:49 28.43622 -81.33011 105 ft 0 kts 269°
2026-05-07 14:51 28.41477 -81.33429 105 ft 0 kts
2026-05-07 14:52 28.43584 -81.33055 105 ft 0 kts 270°
2026-05-07 15:01 28.43584 -81.33054 105 ft 2 kts 269°
2026-05-07 15:01 28.43586 -81.33028 106 ft 4 kts 243°
2026-05-07 15:02 28.43601 -81.33007 105 ft 4 kts 218°
2026-05-07 15:02 28.43617 -81.32988 105 ft 4 kts 246°
2026-05-07 15:02 28.43627 -81.32960 105 ft 4 kts 246°
2026-05-07 15:02 28.43637 -81.32936 106 ft 4 kts 270°
2026-05-07 15:03 28.43641 -81.32927 105 ft 4 kts 334°
2026-05-07 15:03 28.43625 -81.32926 106 ft 4 kts
2026-05-07 15:03 28.43598 -81.32928 106 ft 4 kts
2026-05-07 15:03 28.43589 -81.32929 106 ft 0 kts 359°
2026-05-07 15:06 28.43593 -81.32929 105 ft 1 kts 359°
2026-05-07 15:06 28.43610 -81.32929 106 ft 4 kts 359°
2026-05-07 15:06 28.43654 -81.32929 105 ft 9 kts 359°
2026-05-07 15:07 28.43728 -81.32930 107 ft 13 kts 359°
2026-05-07 15:07 28.43829 -81.32931 108 ft 16 kts 359°
2026-05-07 15:07 28.43950 -81.32922 106 ft 18 kts 14°
2026-05-07 15:07 28.44067 -81.32872 106 ft 17 kts 12°
2026-05-07 15:08 28.44186 -81.32866 107 ft 17 kts 359°
2026-05-07 15:08 28.44300 -81.32866 105 ft 16 kts 360°
2026-05-07 15:08 28.44407 -81.32867 104 ft 15 kts 360°
2026-05-07 15:08 28.44509 -81.32867 106 ft 14 kts 360°
2026-05-07 15:09 28.44608 -81.32867 106 ft 14 kts 360°
2026-05-07 15:09 28.44699 -81.32868 106 ft 12 kts 360°
2026-05-07 15:09 28.44756 -81.32869 106 ft 6 kts 358°
2026-05-07 15:09 28.44793 -81.32859 106 ft 4 kts 30°
2026-05-07 15:10 28.44805 -81.32838 105 ft 3 kts 61°
2026-05-07 15:10 28.44809 -81.32824 106 ft 1 kts 74°
2026-05-07 15:11 28.44809 -81.32822 107 ft 1 kts 77°
2026-05-07 15:11 28.44809 -81.32765 109 ft 9 kts 101°
2026-05-07 15:11 28.44775 -81.32717 109 ft 7 kts 149°
2026-05-07 15:11 28.44730 -81.32703 107 ft 6 kts 172°
2026-05-07 15:12 28.44652 -81.32698 108 ft 21 kts 179°
2026-05-07 15:12 28.44193 -81.32695 107 ft 116 kts 179°
2026-05-07 15:12 28.43115 -81.32683 261 ft 178 kts 180°
2026-05-07 15:12 28.41948 -81.32641 1520 ft 163 kts 178°
2026-05-07 15:13 28.40792 -81.32614 2610 ft 168 kts 188°
2026-05-07 15:13 28.39680 -81.32980 3653 ft 171 kts 201°
2026-05-07 15:13 28.38427 -81.33519 3966 ft 215 kts 202°
2026-05-07 15:13 28.36911 -81.34191 4116 ft 251 kts 202°
2026-05-07 15:14 28.35233 -81.34942 4823 ft 261 kts 202°
2026-05-07 15:14 28.33538 -81.35710 5744 ft 265 kts 203°
2026-05-07 15:14 28.31833 -81.36560 6597 ft 271 kts 213°
2026-05-07 15:14 28.30509 -81.38057 7503 ft 272 kts 239°
2026-05-07 15:15 28.29905 -81.40088 8378 ft 276 kts 265°
2026-05-07 15:15 28.30089 -81.42266 9214 ft 281 kts 279°
2026-05-07 15:15 28.30238 -81.44465 10035 ft 284 kts 269°
2026-05-07 15:15 28.30171 -81.46768 10450 ft 308 kts 267°
2026-05-07 15:16 28.30066 -81.49319 10597 ft 338 kts 267°
2026-05-07 15:16 28.29971 -81.52073 11012 ft 356 kts 268°
2026-05-07 15:16 28.29899 -81.54894 11919 ft 360 kts 268°
2026-05-07 15:16 28.29844 -81.57749 12843 ft 362 kts 268°
2026-05-07 15:17 28.29802 -81.60616 13755 ft 365 kts 269°
2026-05-07 15:17 28.29765 -81.63514 14617 ft 368 kts 269°
2026-05-07 15:17 28.29731 -81.66391 15438 ft 371 kts 270°
2026-05-07 15:17 28.29700 -81.69368 16271 ft 374 kts 270°
2026-05-07 15:18 28.29671 -81.72292 17043 ft 377 kts 270°
2026-05-07 15:18 28.29642 -81.75276 17815 ft 379 kts 270°
2026-05-07 15:18 28.29613 -81.78288 18563 ft 382 kts 271°
2026-05-07 15:18 28.29583 -81.81324 19272 ft 386 kts 270°
2026-05-07 15:19 28.29551 -81.84365 19967 ft 389 kts 270°
2026-05-07 15:19 28.29502 -81.87438 20622 ft 392 kts 268°
2026-05-07 15:19 28.29195 -81.90527 21295 ft 395 kts 262°
2026-05-07 15:19 28.28681 -81.93605 21932 ft 399 kts 260°
2026-05-07 15:20 28.28086 -81.96689 22565 ft 402 kts 259°
2026-05-07 15:20 28.27466 -81.99801 23185 ft 405 kts 259°
2026-05-07 15:20 28.26847 -82.02930 23735 ft 409 kts 259°
2026-05-07 15:20 28.26228 -82.06098 24294 ft 412 kts 259°
2026-05-07 15:21 28.25614 -82.09279 24873 ft 414 kts 259°
2026-05-07 15:21 28.25002 -82.12471 25419 ft 417 kts 259°
2026-05-07 15:21 28.24384 -82.15713 25933 ft 421 kts 259°
2026-05-07 15:21 28.23766 -82.18954 26438 ft 423 kts 259°
2026-05-07 15:22 28.23150 -82.22193 26928 ft 426 kts 259°
2026-05-07 15:22 28.22522 -82.25489 27407 ft 429 kts 259°
2026-05-07 15:22 28.21886 -82.28819 27847 ft 432 kts 259°
2026-05-07 15:22 28.21247 -82.32162 28301 ft 435 kts 259°
2026-05-07 15:23 28.20602 -82.35522 28731 ft 438 kts 259°
2026-05-07 15:23 28.19952 -82.38909 29137 ft 441 kts 259°
2026-05-07 15:23 28.19299 -82.42304 29530 ft 443 kts 259°
2026-05-07 15:23 28.18639 -82.45736 29991 ft 445 kts 259°
2026-05-07 15:24 28.17978 -82.49169 30405 ft 448 kts 259°
2026-05-07 15:24 28.17310 -82.52631 30813 ft 451 kts 259°
2026-05-07 15:24 28.16638 -82.56105 31272 ft 451 kts 259°
2026-05-07 15:24 28.15966 -82.59572 31777 ft 450 kts 259°
2026-05-07 15:25 28.15294 -82.63036 32281 ft 448 kts 259°
2026-05-07 15:25 28.14625 -82.66480 32760 ft 447 kts 259°
2026-05-07 15:25 28.13957 -82.69915 33213 ft 446 kts 259°
2026-05-07 15:25 28.13290 -82.73347 33659 ft 444 kts 259°
2026-05-07 15:26 28.12625 -82.76761 34092 ft 443 kts 259°
2026-05-07 15:26 28.11968 -82.80120 34529 ft 441 kts 259°
2026-05-07 15:26 28.11296 -82.83505 34931 ft 440 kts 259°
2026-05-07 15:26 28.10626 -82.86873 35320 ft 438 kts 259°
2026-05-07 15:27 28.09967 -82.90247 35683 ft 437 kts 259°
2026-05-07 15:27 28.09329 -82.93602 36071 ft 435 kts 260°
2026-05-07 15:27 28.08701 -82.96948 36392 ft 434 kts 260°
2026-05-07 15:27 28.08076 -83.00286 36699 ft 434 kts 260°
2026-05-07 15:28 28.07451 -83.03626 37029 ft 431 kts 260°
2026-05-07 15:28 28.06832 -83.06938 37377 ft 429 kts 260°
2026-05-07 15:28 28.06215 -83.10229 37729 ft 426 kts 260°
2026-05-07 15:28 28.05607 -83.13459 38011 ft 424 kts 260°
2026-05-07 15:29 28.04369 -83.20031 38099 ft 427 kts 260°
2026-05-07 15:29 28.03132 -83.26587 38097 ft 423 kts 260°
2026-05-07 15:30 28.01897 -83.33104 38100 ft 424 kts 260°
2026-05-07 15:30 28.00656 -83.39635 38098 ft 424 kts 259°
2026-05-07 15:31 27.99735 -83.46174 38098 ft 423 kts 266°
2026-05-07 15:31 27.99342 -83.52834 38103 ft 426 kts 268°
2026-05-07 15:32 27.99008 -83.59520 38099 ft 425 kts 267°
2026-05-07 15:32 27.98648 -83.66188 38088 ft 425 kts 267°
2026-05-07 15:33 27.98266 -83.72861 38092 ft 425 kts 267°
2026-05-07 15:33 27.97877 -83.79525 38092 ft 424 kts 267°
2026-05-07 15:34 27.97486 -83.86158 38103 ft 424 kts 267°
2026-05-07 15:34 27.97093 -83.92772 38095 ft 424 kts 267°
2026-05-07 15:35 27.96696 -83.99419 38093 ft 424 kts 267°
2026-05-07 15:35 27.96297 -84.06069 38093 ft 424 kts 267°
2026-05-07 15:36 27.95892 -84.12718 38092 ft 424 kts 267°
2026-05-07 15:36 27.95485 -84.19373 38090 ft 424 kts 267°
2026-05-07 15:37 27.95075 -84.26028 38090 ft 424 kts 267°
2026-05-07 15:37 27.94661 -84.32675 38091 ft 424 kts 266°
2026-05-07 15:38 27.94236 -84.39326 38093 ft 425 kts 266°
2026-05-07 15:38 27.93795 -84.45999 38093 ft 425 kts 266°
2026-05-07 15:39 27.93364 -84.52617 38094 ft 425 kts 266°
2026-05-07 15:39 27.92933 -84.59289 38092 ft 425 kts 266°
2026-05-07 15:40 27.92504 -84.65960 38081 ft 425 kts 266°
2026-05-07 15:40 27.92073 -84.72626 38081 ft 426 kts 266°
2026-05-07 15:41 27.91636 -84.79309 38082 ft 426 kts 266°
2026-05-07 15:41 27.91191 -84.85991 38082 ft 426 kts 266°
2026-05-07 15:42 27.90743 -84.92688 38082 ft 427 kts 266°
2026-05-07 15:42 27.90298 -84.99329 38081 ft 426 kts 266°
2026-05-07 15:43 27.89844 -85.06020 38080 ft 426 kts 266°
2026-05-07 15:43 27.89391 -85.12697 38056 ft 426 kts 266°
2026-05-07 15:44 27.88934 -85.19370 38054 ft 425 kts 266°
2026-05-07 15:44 27.88798 -85.26040 38054 ft 425 kts 277°
2026-05-07 15:45 27.90321 -85.32495 38055 ft 427 kts 288°
2026-05-07 15:45 27.92398 -85.38785 38054 ft 427 kts 288°
2026-05-07 15:46 27.95375 -85.48234 38057 ft 427 kts 287°
2026-05-07 15:47 27.97293 -85.54590 38063 ft 426 kts 287°
2026-05-07 15:47 27.98888 -85.59910 38063 ft 426 kts 287°
2026-05-07 15:48 28.00789 -85.66263 38063 ft 426 kts 287°
2026-05-07 15:48 28.02032 -85.70414 38063 ft 425 kts 287°
2026-05-07 15:49 28.03818 -85.76397 38063 ft 425 kts 287°
2026-05-07 15:49 28.05705 -85.82734 38063 ft 425 kts 287°
2026-05-07 15:50 28.07593 -85.89078 38063 ft 425 kts 287°
2026-05-07 15:50 28.09473 -85.95428 38063 ft 425 kts 287°
2026-05-07 15:51 28.11357 -86.01783 38063 ft 425 kts 287°
2026-05-07 15:51 28.13236 -86.08132 38063 ft 425 kts 287°
2026-05-07 15:52 28.15110 -86.14484 38064 ft 425 kts 287°
2026-05-07 15:52 28.16953 -86.20796 38063 ft 425 kts 286°
2026-05-07 15:53 28.18808 -86.27161 38063 ft 424 kts 286°
2026-05-07 15:53 28.20664 -86.33509 38062 ft 424 kts 286°
2026-05-07 15:54 28.22525 -86.39861 38048 ft 424 kts 286°
2026-05-07 15:54 28.24381 -86.46212 38045 ft 423 kts 286°
2026-05-07 15:55 28.26232 -86.52555 38045 ft 423 kts 286°
2026-05-07 15:55 28.28079 -86.58901 38045 ft 423 kts 286°
2026-05-07 15:56 28.29908 -86.65194 38045 ft 422 kts 286°
2026-05-07 15:56 28.31745 -86.71525 38045 ft 422 kts 286°
2026-05-07 15:57 28.33588 -86.77849 38045 ft 422 kts 286°
2026-05-07 15:57 28.35437 -86.84170 38045 ft 422 kts 286°
2026-05-07 15:58 28.37286 -86.90494 38045 ft 421 kts 286°
2026-05-07 15:58 28.39142 -86.96854 38046 ft 426 kts 286°
2026-05-07 15:59 28.41018 -87.03285 38045 ft 430 kts 286°
2026-05-07 15:59 28.42879 -87.09679 38045 ft 429 kts 286°
2026-05-07 16:00 28.44747 -87.16119 38045 ft 428 kts 285°
2026-05-07 16:00 28.46610 -87.22559 38045 ft 429 kts 285°
2026-05-07 16:01 28.48472 -87.29000 38045 ft 429 kts 285°
2026-05-07 16:01 28.50331 -87.35446 38045 ft 429 kts 285°
2026-05-07 16:02 28.52189 -87.41894 38045 ft 429 kts 285°
2026-05-07 16:02 28.54040 -87.48334 38045 ft 429 kts 285°
2026-05-07 16:03 28.55894 -87.54793 38045 ft 429 kts 285°
2026-05-07 16:03 28.57725 -87.61209 38045 ft 429 kts 285°
2026-05-07 16:04 28.59546 -87.67661 38045 ft 429 kts 285°
2026-05-07 16:04 28.61378 -87.74123 38045 ft 429 kts 285°
2026-05-07 16:05 28.63214 -87.80587 38050 ft 429 kts 285°
2026-05-07 16:05 28.65053 -87.87064 38054 ft 429 kts 285°
2026-05-07 16:06 28.66884 -87.93533 38054 ft 429 kts 285°
2026-05-07 16:06 28.68702 -87.99957 38054 ft 429 kts 285°
2026-05-07 16:07 28.70530 -88.06423 38054 ft 428 kts 285°
2026-05-07 16:07 28.72333 -88.12883 38054 ft 428 kts 285°
2026-05-07 16:08 28.74130 -88.19345 38069 ft 428 kts 284°
2026-05-07 16:08 28.75929 -88.25804 38072 ft 427 kts 284°
2026-05-07 16:09 28.77726 -88.32257 38069 ft 427 kts 284°
2026-05-07 16:09 28.79519 -88.38710 38068 ft 427 kts 284°
2026-05-07 16:10 28.81308 -88.45166 38063 ft 426 kts 284°
2026-05-07 16:10 28.83091 -88.51609 38063 ft 426 kts 284°
2026-05-07 16:11 28.84858 -88.58011 38063 ft 426 kts 284°
2026-05-07 16:11 28.86633 -88.64449 38058 ft 425 kts 284°
2026-05-07 16:12 28.88910 -88.70702 38054 ft 432 kts 297°
2026-05-07 16:12 28.92665 -88.76136 38055 ft 440 kts 307°
2026-05-07 16:13 28.96822 -88.81269 38054 ft 440 kts 306°
2026-05-07 16:13 29.00860 -88.86451 38054 ft 438 kts 305°
2026-05-07 16:14 29.04850 -88.91738 38054 ft 438 kts 304°
2026-05-07 16:14 29.08806 -88.97032 38054 ft 438 kts 304°
2026-05-07 16:15 29.12756 -89.02327 38055 ft 438 kts 304°
2026-05-07 16:15 29.16709 -89.07633 38045 ft 437 kts 304°
2026-05-07 16:16 29.20660 -89.12940 38045 ft 438 kts 304°
2026-05-07 16:16 29.24600 -89.18236 38045 ft 437 kts 304°
2026-05-07 16:17 29.28543 -89.23545 38043 ft 437 kts 304°
2026-05-07 16:17 29.32452 -89.28814 38036 ft 437 kts 304°
2026-05-07 16:18 29.36385 -89.34126 38036 ft 437 kts 304°
2026-05-07 16:18 29.40310 -89.39433 38035 ft 436 kts 304°
2026-05-07 16:19 29.44212 -89.44724 38035 ft 436 kts 303°
2026-05-07 16:19 29.48120 -89.50050 38036 ft 436 kts 303°
2026-05-07 16:20 29.52037 -89.55380 38036 ft 436 kts 303°
2026-05-07 16:20 29.55945 -89.60690 38036 ft 435 kts 303°
2026-05-07 16:21 29.59852 -89.66001 38036 ft 435 kts 303°
2026-05-07 16:21 29.63758 -89.71328 38036 ft 435 kts 303°
2026-05-07 16:22 29.67629 -89.76613 38036 ft 434 kts 303°
2026-05-07 16:22 29.71513 -89.81929 38036 ft 434 kts 303°
2026-05-07 16:23 29.75398 -89.87250 38036 ft 434 kts 303°
2026-05-07 16:23 29.79278 -89.92567 38036 ft 434 kts 302°
2026-05-07 16:24 29.81539 -89.95670 38036 ft 434 kts 302°
2026-05-07 16:24 29.84880 -90.00257 38036 ft 433 kts 302°
2026-05-07 16:25 29.88574 -90.05694 38036 ft 429 kts 298°
2026-05-07 16:25 29.91858 -90.11347 38037 ft 427 kts 296°
2026-05-07 16:26 29.95111 -90.17086 38045 ft 427 kts 296°
2026-05-07 16:26 29.98383 -90.22810 38045 ft 427 kts 296°
2026-05-07 16:27 30.01667 -90.28531 38045 ft 427 kts 296°
2026-05-07 16:27 30.04947 -90.34243 38045 ft 426 kts 296°
2026-05-07 16:28 30.08231 -90.39967 38045 ft 427 kts 296°
2026-05-07 16:28 30.11505 -90.45692 38045 ft 427 kts 296°
2026-05-07 16:29 30.14756 -90.51378 38052 ft 426 kts 296°
2026-05-07 16:29 30.18022 -90.57101 38054 ft 426 kts 296°
2026-05-07 16:30 30.21280 -90.62817 38054 ft 425 kts 296°
2026-05-07 16:30 30.24531 -90.68524 38054 ft 424 kts 296°
2026-05-07 16:31 30.27769 -90.74224 38054 ft 424 kts 296°
2026-05-07 16:31 30.31006 -90.79933 38054 ft 425 kts 296°
2026-05-07 16:32 30.34239 -90.85653 38054 ft 424 kts 295°
2026-05-07 16:32 30.37453 -90.91369 38055 ft 424 kts 295°
2026-05-07 16:33 30.40676 -90.97089 38055 ft 424 kts 295°
2026-05-07 16:33 30.43877 -91.02774 38054 ft 424 kts 295°
2026-05-07 16:34 30.47093 -91.08476 38054 ft 423 kts 295°
2026-05-07 16:34 30.50310 -91.14189 38055 ft 423 kts 295°
2026-05-07 16:35 30.53526 -91.19912 38054 ft 423 kts 295°
2026-05-07 16:35 30.56739 -91.25639 38054 ft 423 kts 295°
2026-05-07 16:36 30.59949 -91.31370 38055 ft 423 kts 295°
2026-05-07 16:36 30.63156 -91.37105 38054 ft 423 kts 295°
2026-05-07 16:37 30.65820 -91.41877 38054 ft 423 kts 295°
2026-05-07 16:37 30.69008 -91.47611 38054 ft 422 kts 295°
2026-05-07 16:38 30.72193 -91.53350 38054 ft 422 kts 295°
2026-05-07 16:38 30.75385 -91.59095 38054 ft 422 kts 295°
2026-05-07 16:39 30.78569 -91.64825 38063 ft 421 kts 295°
2026-05-07 16:39 30.81745 -91.70553 38067 ft 421 kts 295°
2026-05-07 16:40 30.84901 -91.76246 38076 ft 421 kts 294°
2026-05-07 16:40 30.88067 -91.81968 38085 ft 420 kts 294°
2026-05-07 16:41 30.91229 -91.87691 38092 ft 420 kts 294°
2026-05-07 16:41 30.94382 -91.93407 38093 ft 419 kts 294°
2026-05-07 16:42 30.97530 -91.99120 38099 ft 418 kts 294°
2026-05-07 16:42 31.00663 -92.04816 38110 ft 417 kts 294°
2026-05-07 16:43 31.03767 -92.10465 38107 ft 415 kts 294°
2026-05-07 16:43 31.06880 -92.16143 38109 ft 415 kts 294°
2026-05-07 16:44 31.09983 -92.21813 38109 ft 414 kts 294°
2026-05-07 16:44 31.13076 -92.27489 38109 ft 414 kts 293°
2026-05-07 16:45 31.16150 -92.33162 38102 ft 413 kts 293°
2026-05-07 16:45 31.19228 -92.38826 38101 ft 413 kts 293°
2026-05-07 16:46 31.22305 -92.44479 38102 ft 412 kts 293°
2026-05-07 16:46 31.25387 -92.50148 38099 ft 412 kts 293°
2026-05-07 16:47 31.27935 -92.56018 38099 ft 401 kts 284°
2026-05-07 16:47 31.29963 -92.62085 38102 ft 400 kts 283°
2026-05-07 16:48 31.31946 -92.68123 38103 ft 400 kts 283°
2026-05-07 16:48 31.33970 -92.74186 38100 ft 400 kts 284°
2026-05-07 16:49 31.36006 -92.80247 38100 ft 400 kts 284°
2026-05-07 16:49 31.38036 -92.86284 38103 ft 400 kts 284°
2026-05-07 16:50 31.40069 -92.92350 38098 ft 400 kts 283°
2026-05-07 16:50 31.42102 -92.98419 38108 ft 400 kts 283°
2026-05-07 16:51 31.44132 -93.04489 38111 ft 400 kts 283°
2026-05-07 16:51 31.46158 -93.10561 38112 ft 400 kts 283°
2026-05-07 16:52 31.48183 -93.16636 38108 ft 399 kts 283°
2026-05-07 16:52 31.50188 -93.22672 38110 ft 399 kts 283°
2026-05-07 16:53 31.52199 -93.28737 38107 ft 399 kts 283°
2026-05-07 16:53 31.54209 -93.34807 38109 ft 398 kts 283°
2026-05-07 16:54 31.56211 -93.40861 38116 ft 398 kts 283°
2026-05-07 16:54 31.58194 -93.46926 38118 ft 397 kts 283°
2026-05-07 16:55 31.60161 -93.52954 38119 ft 398 kts 283°
2026-05-07 16:55 31.62093 -93.59028 38126 ft 395 kts 280°
2026-05-07 16:56 31.63698 -93.65182 38128 ft 392 kts 279°
2026-05-07 16:56 31.65978 -93.74398 38133 ft 392 kts 278°
2026-05-07 16:57 31.67505 -93.80538 38144 ft 391 kts 278°
2026-05-07 16:57 31.69026 -93.86628 38133 ft 391 kts 278°
2026-05-07 16:58 31.70556 -93.92760 38145 ft 390 kts 278°
2026-05-07 16:58 31.72079 -93.98886 38145 ft 390 kts 278°
2026-05-07 16:59 31.73596 -94.05006 38146 ft 390 kts 278°
2026-05-07 16:59 31.75111 -94.11132 38146 ft 390 kts 278°
2026-05-07 17:00 31.76623 -94.17254 38147 ft 390 kts 278°
2026-05-07 17:00 31.78123 -94.23345 38152 ft 390 kts 278°
2026-05-07 17:01 31.79630 -94.29468 38150 ft 390 kts 278°
2026-05-07 17:01 31.81134 -94.35599 38149 ft 389 kts 278°
2026-05-07 17:02 31.82630 -94.41715 38141 ft 389 kts 278°
2026-05-07 17:02 31.84123 -94.47825 38149 ft 389 kts 278°
2026-05-07 17:03 31.85607 -94.53946 38130 ft 389 kts 278°
2026-05-07 17:03 31.87073 -94.60066 38129 ft 388 kts 278°
2026-05-07 17:04 31.88541 -94.66155 38128 ft 388 kts 278°
2026-05-07 17:04 31.90017 -94.72263 38128 ft 388 kts 278°
2026-05-07 17:05 31.90758 -94.75345 37640 ft 394 kts 278°
2026-05-07 17:05 31.91494 -94.78408 36985 ft 391 kts 278°
2026-05-07 17:05 31.92235 -94.81478 36327 ft 389 kts 278°
2026-05-07 17:05 31.92973 -94.84536 35758 ft 389 kts 278°
2026-05-07 17:06 31.93712 -94.87611 35290 ft 393 kts 278°
2026-05-07 17:06 31.94461 -94.90738 34814 ft 399 kts 278°
2026-05-07 17:06 31.95217 -94.93906 34385 ft 404 kts 279°
2026-05-07 17:06 31.95983 -94.97112 33948 ft 407 kts 279°
2026-05-07 17:07 31.96751 -95.00322 33505 ft 409 kts 279°
2026-05-07 17:07 31.97524 -95.03555 33066 ft 411 kts 279°
2026-05-07 17:07 31.98300 -95.06803 32622 ft 413 kts 279°
2026-05-07 17:07 31.99070 -95.10069 32157 ft 414 kts 279°
2026-05-07 17:08 31.99824 -95.13351 31683 ft 416 kts 279°
2026-05-07 17:08 32.00576 -95.16650 31202 ft 418 kts 279°
2026-05-07 17:08 32.01331 -95.19965 30725 ft 417 kts 279°
2026-05-07 17:08 32.02083 -95.23265 30213 ft 415 kts 279°
2026-05-07 17:09 32.02822 -95.26506 29721 ft 416 kts 279°
2026-05-07 17:09 32.03573 -95.29806 29223 ft 418 kts 279°
2026-05-07 17:09 32.04328 -95.33127 28716 ft 421 kts 279°
2026-05-07 17:09 32.05088 -95.36473 28210 ft 423 kts 280°
2026-05-07 17:10 32.05848 -95.39812 27699 ft 420 kts 280°
2026-05-07 17:10 32.06606 -95.43137 27201 ft 416 kts 280°
2026-05-07 17:10 32.07354 -95.46426 26763 ft 412 kts 280°
2026-05-07 17:10 32.08091 -95.49674 26480 ft 409 kts 280°
2026-05-07 17:11 32.08822 -95.52907 26283 ft 409 kts 280°
2026-05-07 17:11 32.09570 -95.56146 25895 ft 407 kts 281°
2026-05-07 17:11 32.10346 -95.59297 25341 ft 402 kts 282°
2026-05-07 17:11 32.11104 -95.62262 24818 ft 389 kts 282°
2026-05-07 17:12 32.11888 -95.65288 24288 ft 383 kts 282°
2026-05-07 17:12 32.12658 -95.68275 23781 ft 379 kts 282°
2026-05-07 17:12 32.13420 -95.71236 23387 ft 375 kts 282°
2026-05-07 17:12 32.14174 -95.74176 23156 ft 374 kts 282°
2026-05-07 17:13 32.14895 -95.77125 23077 ft 375 kts 281°
2026-05-07 17:13 32.15590 -95.80089 23002 ft 374 kts 281°
2026-05-07 17:13 32.16275 -95.83053 22922 ft 374 kts 281°
2026-05-07 17:13 32.16959 -95.86014 22608 ft 377 kts 281°
2026-05-07 17:14 32.17645 -95.89001 22039 ft 373 kts 281°
2026-05-07 17:14 32.18322 -95.91932 21488 ft 369 kts 281°
2026-05-07 17:14 32.18994 -95.94831 20936 ft 366 kts 281°
2026-05-07 17:14 32.19661 -95.97714 20417 ft 363 kts 281°
2026-05-07 17:15 32.20321 -96.00583 19901 ft 362 kts 281°
2026-05-07 17:15 32.20979 -96.03443 19382 ft 359 kts 281°
2026-05-07 17:15 32.21634 -96.06278 18870 ft 357 kts 281°
2026-05-07 17:15 32.22279 -96.09068 18362 ft 355 kts 281°
2026-05-07 17:16 32.22922 -96.11881 17855 ft 354 kts 281°
2026-05-07 17:16 32.23561 -96.14671 17347 ft 352 kts 282°
2026-05-07 17:16 32.24201 -96.17457 16838 ft 350 kts 282°
2026-05-07 17:16 32.24831 -96.20221 16336 ft 347 kts 281°
2026-05-07 17:17 32.25453 -96.22969 15861 ft 346 kts 282°
2026-05-07 17:17 32.26075 -96.25709 15572 ft 345 kts 282°
2026-05-07 17:17 32.26690 -96.28411 15439 ft 344 kts 282°
2026-05-07 17:17 32.27349 -96.31141 15121 ft 346 kts 287°
2026-05-07 17:18 32.28508 -96.33642 14813 ft 352 kts 301°
2026-05-07 17:18 32.30060 -96.35889 14371 ft 353 kts 306°
2026-05-07 17:18 32.31789 -96.37970 13948 ft 354 kts 311°
2026-05-07 17:18 32.33654 -96.39899 13417 ft 356 kts 314°
2026-05-07 17:19 32.35533 -96.41749 12878 ft 353 kts 315°
2026-05-07 17:19 32.37416 -96.43600 12345 ft 349 kts 313°
2026-05-07 17:19 32.38982 -96.45697 12030 ft 329 kts 301°
2026-05-07 17:19 32.40185 -96.47931 11450 ft 316 kts 296°
2026-05-07 17:20 32.41229 -96.50136 10920 ft 304 kts 295°
2026-05-07 17:20 32.42216 -96.52295 10437 ft 294 kts 295°
2026-05-07 17:20 32.43167 -96.54380 10069 ft 281 kts 296°
2026-05-07 17:20 32.44087 -96.56389 9607 ft 274 kts 296°
2026-05-07 17:21 32.44989 -96.58349 9217 ft 266 kts 297°
2026-05-07 17:21 32.45870 -96.60257 8835 ft 264 kts 297°
2026-05-07 17:21 32.46758 -96.62180 8465 ft 268 kts 297°
2026-05-07 17:21 32.47651 -96.64110 8119 ft 266 kts 298°
2026-05-07 17:22 32.48608 -96.65971 8005 ft 262 kts 307°
2026-05-07 17:22 32.49954 -96.67407 7971 ft 264 kts 329°
2026-05-07 17:22 32.51646 -96.68259 7901 ft 266 kts 339°
2026-05-07 17:22 32.53413 -96.68921 7831 ft 266 kts 341°
2026-05-07 17:23 32.55190 -96.69546 7770 ft 265 kts 341°
2026-05-07 17:23 32.56962 -96.70169 7600 ft 269 kts 341°
2026-05-07 17:23 32.58729 -96.70792 7192 ft 267 kts 341°
2026-05-07 17:23 32.60506 -96.71421 6786 ft 265 kts 341°
2026-05-07 17:24 32.62257 -96.72041 6417 ft 260 kts 342°
2026-05-07 17:24 32.63980 -96.72654 6045 ft 257 kts 342°
2026-05-07 17:24 32.65688 -96.73267 5675 ft 255 kts 340°
2026-05-07 17:24 32.67219 -96.74269 5334 ft 251 kts 321°
2026-05-07 17:25 32.68536 -96.75630 5045 ft 251 kts 318°
2026-05-07 17:25 32.69821 -96.77025 5016 ft 251 kts 317°
2026-05-07 17:25 32.70661 -96.77983 4981 ft 252 kts 316°
2026-05-07 17:25 32.71897 -96.79435 4996 ft 252 kts 316°
2026-05-07 17:26 32.73509 -96.81335 4793 ft 243 kts 316°
2026-05-07 17:26 32.74692 -96.82732 4509 ft 238 kts 316°
2026-05-07 17:26 32.75487 -96.83666 4309 ft 236 kts 317°
2026-05-07 17:26 32.76617 -96.84990 3988 ft 220 kts 317°
2026-05-07 17:27 32.77654 -96.86205 3738 ft 204 kts 317°
2026-05-07 17:27 32.78628 -96.87348 3450 ft 189 kts 317°
2026-05-07 17:27 32.79518 -96.88394 3187 ft 174 kts 318°
2026-05-07 17:27 32.80378 -96.89405 2992 ft 173 kts 319°
2026-05-07 17:28 32.81227 -96.90400 2814 ft 169 kts 319°
2026-05-07 17:28 32.82042 -96.91352 2519 ft 156 kts 318°
2026-05-07 17:28 32.82809 -96.92243 2363 ft 154 kts 317°
2026-05-07 17:28 32.83564 -96.93131 2133 ft 152 kts 317°
2026-05-07 17:29 32.84320 -96.94019 1987 ft 153 kts 317°
2026-05-07 17:29 32.85074 -96.94905 1720 ft 152 kts 316°
2026-05-07 17:29 32.85824 -96.95804 1555 ft 152 kts 317°
2026-05-07 17:29 32.86574 -96.96712 1324 ft 153 kts 317°
2026-05-07 17:30 32.87324 -96.97584 1140 ft 153 kts 320°
2026-05-07 17:30 32.88095 -96.98463 931 ft 154 kts 317°
2026-05-07 17:30 32.88855 -96.99347 740 ft 153 kts 318°
2026-05-07 17:30 32.89615 -97.00224 563 ft 151 kts 317°
2026-05-07 17:31 32.90296 -97.01019 548 ft 115 kts 315°
2026-05-07 17:31 32.90707 -97.01501 561 ft 41 kts 312°
2026-05-07 17:31 32.90806 -97.01771 570 ft 32 kts 287°
2026-05-07 17:31 32.90863 -97.02008 570 ft 27 kts 285°
2026-05-07 17:32 32.90896 -97.02201 573 ft 20 kts 275°
2026-05-07 17:32 32.90900 -97.02350 576 ft 17 kts 270°
2026-05-07 17:32 32.90901 -97.02492 575 ft 18 kts 271°
2026-05-07 17:32 32.90902 -97.02637 577 ft 17 kts 270°
2026-05-07 17:33 32.90902 -97.02776 580 ft 17 kts 270°
2026-05-07 17:33 32.90902 -97.02916 582 ft 18 kts 270°
2026-05-07 17:33 32.90902 -97.03066 583 ft 18 kts 270°
2026-05-07 17:33 32.90903 -97.03213 588 ft 17 kts 272°
2026-05-07 17:34 32.90904 -97.03343 593 ft 16 kts 270°
2026-05-07 17:34 32.90904 -97.03513 594 ft 26 kts 270°
2026-05-07 17:34 32.90905 -97.03745 607 ft 28 kts 270°
2026-05-07 17:34 32.90906 -97.03972 617 ft 29 kts 270°
2026-05-07 17:35 32.90907 -97.04217 617 ft 29 kts 270°
2026-05-07 17:35 32.90908 -97.04458 608 ft 31 kts 270°
2026-05-07 17:35 32.90908 -97.04710 615 ft 29 kts 270°
2026-05-07 17:35 32.90910 -97.04927 626 ft 24 kts 270°
2026-05-07 17:36 32.90910 -97.05120 630 ft 22 kts 270°
2026-05-07 17:36 32.90910 -97.05290 619 ft 19 kts 270°
2026-05-07 17:36 32.90911 -97.05446 631 ft 19 kts 270°
2026-05-07 17:36 32.90912 -97.05599 626 ft 18 kts 270°
2026-05-07 17:37 32.90912 -97.05737 620 ft 13 kts 271°
2026-05-07 17:37 32.90937 -97.05782 633 ft 4 kts 329°
2026-05-07 17:37 32.90964 -97.05787 631 ft 5 kts
2026-05-07 17:37 32.91013 -97.05785 632 ft 9 kts
2026-05-07 17:38 32.91091 -97.05784 630 ft 13 kts 359°
2026-05-07 17:38 32.91189 -97.05786 630 ft 14 kts 359°
2026-05-07 17:38 32.91235 -97.05824 630 ft 5 kts 291°
2026-05-07 17:38 32.91236 -97.05856 633 ft 4 kts 272°
2026-05-07 17:39 32.91255 -97.05879 635 ft 4 kts 341°
2026-05-07 17:39 32.91285 -97.05875 631 ft 6 kts
2026-05-07 17:39 32.91354 -97.05871 626 ft 13 kts
2026-05-07 17:39 32.91466 -97.05872 634 ft 19 kts 359°
2026-05-07 17:40 32.91569 -97.05877 632 ft 8 kts 343°
2026-05-07 17:40 32.91589 -97.05902 639 ft 5 kts 297°
2026-05-07 17:40 32.91590 -97.05967 626 ft 10 kts 270°
2026-05-07 17:40 32.91590 -97.06053 634 ft 8 kts 270°
2026-05-07 17:41 32.91590 -97.06115 625 ft 7 kts 269°
2026-05-07 17:41 32.91582 -97.06134 636 ft 3 kts 235°
2026-05-07 17:41 32.91564 -97.06143 631 ft 1 kts 185°
2026-05-07 17:41 32.91537 -97.06142 625 ft 4 kts 180°
2026-05-07 17:42 32.91526 -97.06142 625 ft 0 kts 180°